DW5513 Weather Reports


Display with metric or nautical units.
time (UTC)temp
F
wind
direction
speed
MPH
gust
MPH
rain 1hr
in
rain 24hr
in
rain mn
in
humidity
%
barometer
mb
20260502184522 47 332 4.0 12.0 0.00 0.05 0.02 51 1013.7
20260502183019 48 247 3.0 11.0 0.00 0.05 0.02 52 1013.5
20260502181524 48 328 3.0 11.0 0.00 0.05 0.02 52 1013.5
20260502163008 47 286 4.0 12.0 0.00 0.05 0.02 60 1013.5
20260502161505 45 320 2.0 10.0 0.00 0.05 0.02 61 1013.6
20260502151611 42 358 2.0 8.0 0.00 0.05 0.02 73 1014.0
20260502150109 42 122 2.0 7.0 0.00 0.05 0.02 73 1014.0
20260502123041 41 38 0.0 2.0 0.00 0.05 0.02 87 1013.9
20260502121546 41 292 0.0 5.0 0.00 0.05 0.02 86 1013.9
20260502114539 41 309 2.0 8.0 0.00 0.05 0.02 87 1014.1
20260502113038 40 24 0.0 6.0 0.00 0.05 0.02 88 1014.0
20260502111535 40 333 0.0 7.0 0.00 0.05 0.02 88 1013.8
20260502110032 40 297 1.0 3.0 0.00 0.05 0.02 89 1013.6
20260502104542 40 238 0.0 2.0 0.00 0.05 0.02 89 1013.4
20260502103029 40 245 0.0 1.0 0.00 0.05 0.02 89 1013.4
20260502101526 40 249 0.0 3.0 0.00 0.05 0.02 90 1013.1
20260502091524 40 308 0.0 3.0 0.00 0.05 0.02 89 1012.8
20260502071525 40 317 0.0 6.0 0.00 0.05 0.02 90 1012.4
20260502070011 40 259 1.0 5.0 0.01 0.05 0.02 90 1012.2
20260502064511 40 47 0.0 4.0 0.02 0.05 0.02 91 1012.3
20260502063005 41 323 0.0 3.0 0.02 0.05 0.02 92 1012.5
20260502061504 41 326 0.0 2.0 0.02 0.05 0.02 92 1012.4
20260502060002 41 317 0.0 2.0 0.01 0.04 0.01 90 1012.6
20260502054605 41 34 0.0 5.0 0.00 0.03 0.00 89 1012.6
20260502053058 42 4 0.0 6.0 0.00 0.03 0.00 89 1012.4
20260502051639 43 352 1.0 4.0 0.00 0.03 0.00 91 1012.3
20260502050100 43 237 0.0 0.0 0.00 0.03 0.00 92 1012.3
20260502044601 43 237 0.0 0.0 0.01 0.03 0.00 91 1012.4
20260502043050 43 237 0.0 1.0 0.02 0.03 0.00 91 1012.3
20260502041549 43 237 0.0 1.0 0.02 0.03 0.00 90 1012.4
20260502040047 44 236 0.0 1.0 0.02 0.03 0.00 90 1012.4
20260502034548 44 237 0.0 1.0 0.02 0.02 0.02 89 1012.3
20260502033051 44 323 0.0 1.0 0.01 0.01 0.01 87 1012.3
20260502031605 44 248 0.0 0.0 0.00 0.00 0.01 86 1012.3
20260502030046 45 229 0.0 1.0 0.01 0.01 0.01 85 1012.5
20260502024551 45 176 0.0 3.0 0.00 0.00 0.00 85 1012.5
20260502023043 46 223 0.0 1.0 0.00 0.00 0.00 83 1012.4
20260502021542 46 238 0.0 2.0 0.00 0.00 0.00 80 1012.4
20260502020046 47 358 0.0 2.0 0.00 0.00 0.00 76 1012.5
20260502014541 47 281 0.0 1.0 0.00 0.00 0.00 73 1012.5
20260502013040 48 345 0.0 2.0 0.00 0.00 0.00 70 1012.4
20260502011547 49 344 0.0 5.0 0.00 0.00 0.00 67 1012.3
20260502010039 49 288 0.0 1.0 0.00 0.00 0.00 64 1012.2
20260502004538 49 236 0.0 1.0 0.00 0.00 0.00 62 1012.1
20260502003037 50 15 0.0 1.0 0.00 0.00 0.00 60 1012.0
20260502001537 50 315 0.0 1.0 0.00 0.00 0.00 60 1011.8
20260502000036 50 2 0.0 2.0 0.00 0.00 0.00 59 1011.8
20260501234548 50 33 0.0 2.0 0.00 0.00 0.00 58 1011.7
20260501233035 51 74 1.0 5.0 0.00 0.00 0.00 57 1011.8
20260501231547 51 248 0.0 5.0 0.00 0.00 0.00 55 1011.7
20260501230034 52 324 2.0 6.0 0.00 0.00 0.00 52 1011.7
20260501224532 52 205 2.0 7.0 0.00 0.00 0.00 49 1011.5
20260501223032 53 295 1.0 7.0 0.00 0.00 0.00 47 1011.3
20260501221533 54 262 0.0 4.0 0.00 0.00 0.00 47 1011.1
20260501220031 54 280 2.0 7.0 0.00 0.00 0.00 45 1011.1
20260501214541 55 307 0.0 5.0 0.00 0.00 0.00 45 1010.9
20260501213031 55 225 1.0 5.0 0.00 0.00 0.00 44 1010.9
20260501211529 55 278 2.0 8.0 0.00 0.00 0.00 43 1010.8
20260501210028 57 256 2.0 7.0 0.00 0.00 0.00 40 1010.9
20260501204527 56 329 3.0 8.0 0.00 0.00 0.00 38 1010.9
20260501203026 56 41 1.0 5.0 0.00 0.00 0.00 41 1010.8
20260501201525 56 217 1.0 6.0 0.00 0.00 0.00 40 1010.8
20260501200024 57 72 2.0 8.0 0.00 0.00 0.00 39 1011.0
20260501194522 57 303 2.0 9.0 0.00 0.00 0.00 40 1011.1
20260501193029 57 252 1.0 10.0 0.00 0.00 0.00 40 1011.1
20260501191517 57 139 5.0 11.0 0.00 0.00 0.00 41 1011.3
20260501190016 56 72 2.0 10.0 0.00 0.00 0.00 43 1011.3